Regional Weather Roundup
Issued by NWS

Home | Current Version | Previous Version | Text Only | Print | Product List | Glossary On
Versions: 1 2 3 4 5 6 7 8 9 10 11 12 13 14 15 16 17 18 19 20 21 22 23 24 25 26 27
000
ASUS45 KTFX 192010
RWRMT
MONTANA REGIONAL WEATHER ROUNDUP
NATIONAL WEATHER SERVICE GREAT FALLS MT
100 PM MST MON FEB 19 2018

NOTE: "FAIR" INDICATES FEW OR NO CLOUDS BELOW 12000 FEET WITH NO
SIGNIFICANT WEATHER AND/OR OBSTRUCTIONS TO VISIBILITY.

MTZ001>007-043-192100-
WEST OF THE DIVIDE

CITY           SKY/WX    TMP DP  RH WIND       PRES   REMARKS
KALISPELL      FAIR      12  -7  42 CALM      29.99F
MISSOULA       CLOUDY     9  -5  53 SE14      29.96F WCI  -7
BUTTE          FAIR       0 -10  63 CALM      29.73F
MULLAN PASS    LGT SNOW   1  -3  83 CALM      29.67F FOG
ANACONDA         N/A      0 -11  60 N5        29.80F
DEER LODGE       N/A      3  -8  60 CALM      29.86F
HAMILTON         N/A      9  -6  52 MISG      29.91
PLAINS           N/A     14  -6  40 CALM      30.03F
RONAN            N/A      9   0  66 SW5       30.00S
$$

MTZ008-052>055-192100-
SOUTHWEST MONTANA

CITY           SKY/WX    TMP DP  RH WIND       PRES   REMARKS
BOZEMAN        CLOUDY     1  -9  62 NW7       29.87F WCI -12
DILLON         FAIR      -4  -8  83 VRB3      29.76F
ENNIS          SUNNY     -2 -11  65 CALM      29.79F
W YELLOWSTONE  CLOUDY     5  -6  61 CALM      29.52S
THREE FORKS      N/A      3 -11  52 W7        29.88F WCI  -9
TWIN BRIDGES     N/A      3 -12  49 N2        29.81S
$$

MTZ009-010-012-014-046-048-049-054-192100-
EAST SLOPES AND CENTRAL MONTANA

CITY           SKY/WX    TMP DP  RH WIND       PRES   REMARKS
CUT BANK       FAIR      -2  -7  79 W5        29.97F
GREAT FALLS    FAIR      -4 -10  75 MISG      29.99F
MALMSTROM AFB  FAIR      -2  -6  82 N5        30.02F
HELENA         FAIR       4 -11  50 NW5       29.93F
AUGUSTA        FAIR      -5  -9  84 CALM      29.91F
BOWMANS CRNR   FAIR      -5 -10  77 N6        29.90F WCI -18
CONRAD           N/A      1  -7  69 W1        30.02F
FAIRFIELD      PTSUNNY   -3 -10  73 CALM      29.97F
POWER          FAIR      -4  -9  79 W5        29.97F
RAYNESFORD     FAIR      -3 -10  73 NW5       29.96F
ULM            FAIR      -4  -8  81 CALM      30.00F
WHITE SULPHUR    N/A     -6 -13  71 CALM      29.80F
$$

MTZ011-013-016-021-045-047-050-051-192100-
NORTH CENTRAL MONTANA

CITY           SKY/WX    TMP DP  RH WIND       PRES   REMARKS
HAVRE          CLOUDY    -2  -7  79 W7        30.11F HAZE    WCI -15
LEWISTOWN      CLOUDY    -3  -8  79 NW8       29.93F WCI -18
N BAR RANCH    CLOUDY    -2 -11  65 NE7       29.90F WCI -16
CHINOOK          N/A      0  -8  71 W3        30.14F
GEYSER         FAIR      -3  -8  79 CALM      29.94F
STANFORD       FAIR      -5  -9  84 NE3       29.90F
WINIFRED       PTSUNNY   -3  -6  85 W6        29.98F FOG     WCI -15
$$

MTZ017>020-022>027-061-062-192100-
NORTHEAST MONTANA

CITY           SKY/WX    TMP DP  RH WIND       PRES   REMARKS
GLASGOW        PTSUNNY    0  -6  76 NW6       30.12F HAZE    WCI -12
GLENDIVE       PTSUNNY    4  -2  76 N3        30.10F
JORDAN           N/A      5  -2  72 NE3       30.07F
MALTA          SUNNY      0  -6  78 W3        30.13F HAZE
SIDNEY         FAIR       8  -4  58 N5        30.16F
WOLF POINT     FAIR       4  -4  69 CALM      30.17F
PLENTYWOOD       N/A      1  -6  71 CALM      30.14F
POPLAR           N/A      1  -6  71 CALM      30.17F
SCOBEY           N/A      0  -9  65 CALM      30.09F
$$

MTZ028>42-056>058-192100-
SOUTHCENTRAL AND SOUTHEAST MONTANA

CITY           SKY/WX    TMP DP  RH WIND       PRES   REMARKS
BAKER          LGT SNOW   2  -3  80 E8        30.02F WCI -12
BILLINGS       PTSUNNY    2  -4  76 N8        29.95F WCI -12
LIVINGSTON     FAIR      -1  -7  75 E10       29.84F WCI -17
MILES CITY     LGT SNOW   4  -1  80 N8        30.06S WCI  -9
BIG TIMBER     MOSUNNY   -2 -11  65 N5        29.90F
EKALAKA          N/A      0 -10  62 NE10      29.92F WCI -16
FORSYTH          N/A      3  -2  78 N5        30.05F
HARLOWTON      FAIR      -4  -9  77 N5        29.89F
LAUREL           N/A      1  -6  71 NE7       29.98F WCI -11
$$

REGIONAL REPORTS...DAKOTAS

CITY           SKY/WX    TMP DP  RH WIND       PRES   REMARKS
WILLISTON      CLOUDY     5  -5  63 CALM      30.16F
MINOT          CLOUDY     8  -4  58 W3        30.19S
DICKINSON      LGT SNOW   4  -7  60 NE7       30.05F WCI  -8
BEACH          FLURRIES   3  -6  66 CALM      30.08F
CROSBY         FAIR       1  -4  78 CALM      30.17F
TIOGA          FAIR       1  -2  85 S3        30.14F
BISMARCK       CLOUDY     7  -5  57 NE13      30.17F WCI  -9
GRAND FORKS    CLOUDY     6  -5  60 N18       30.23F WCI -13
FARGO          CLOUDY    10   2  69 N18       30.15S WCI  -8
BUFFALO SD       N/A      2  -5  72 NE15      29.91F WCI -17
RAPID CITY     LGT SNOW   1  -4  79 N15       29.93F VSB 1   WCI -18
$$

REGIONAL REPORTS...WYOMING/IDAHO/WASHINGTON

CITY           SKY/WX    TMP DP  RH WIND       PRES   REMARKS
GILLETTE       LGT SNOW   2  -5  72 N8        29.81F WCI -12
SHERIDAN       LGT SNOW   2  -4  76 N6        29.89S WCI  -9
BUFFALO WY     LGT SNOW   1  -6  72 N10       29.77F WCI -15
CODY           LGT SNOW  -3 -10  72 NE14      29.78S WCI -22
YELLOWSTONE LA   N/A      6   0  76 VRB3      29.44S
IDAHO FALLS    FAIR      20   2  45 N7        29.61F WCI  11
SALMON         FAIR      18   3  52 N5        29.78F
BOISE          PTSUNNY   31  16  54 NW20G29   29.79R WCI  19
SPOKANE        FAIR      18  -1  43 N9        30.01F WCI   7
$$

REGIONAL REPORTS...ALBERTA

CITY           SKY/WX    TMP DP  RH WIND       PRES   REMARKS
CALGARY        MOSUNNY    7  -9  47 SW5       29.94F
CARDSTON         N/A      7  -4  61 SE3         N/A
EDMONTON       CLOUDY    12  -4  48 W14G20    29.94F WCI  -3
FORT MCMURRAY  LGT SNOW  12   5  73 SW8       29.84S WCI   1
HIGH LEVEL     CLOUDY    16   5  62 NW9G28    29.90R WCI   4
LETHBRIDGE     MOSUNNY    0  -8  71 SW9       30.03F WCI -16
LLOYDMINSTER   MOSUNNY    5  -2  72 W16       29.94F WCI -14
MEDICINE HAT   PTSUNNY    0  -6  78 SW12G17   30.10F WCI -18
MILK RIVER       N/A      0  -6  78 NW9         N/A  WCI -16
PEACE RIVER    PTSUNNY   12  -2  52 W12       29.94F WCI  -2
PINCHER CREEK  MOSUNNY   -4 -13  65 W3        29.94F
$$

REGIONAL REPORTS...SASKATCHEWAN

CITY           SKY/WX    TMP DP  RH WIND       PRES   REMARKS
CORONACH         N/A      1  -4  78 W3          N/A
CYPRESS HILLS    N/A     -2  -8  78 W5          N/A
ESTEVAN        PTSUNNY    0  -6  78 W5        30.16F
MOOSE JAW        N/A      3  -6  66 W12         N/A  WCI -13
PRINCE ALBERT  PTSUNNY    1  -9  60 S10       30.07F WCI -14
REGINA         PTSUNNY    0  -6  78 SW6       30.15F WCI -12
ROCKGLEN         N/A      1  -8  66 W5          N/A
SASKATOON      SUNNY      0  -8  71 SW12      30.09F WCI -18
SWIFT CURRENT  SUNNY      0  -4  85 SW16      30.05S WCI -21
VAL MARIE        N/A     -4  -8  84 CALM        N/A
$$




USA.gov is the U.S. government's official web portal to all federal, state and local government web resources and services.